CAPE
1211 1190 623 176 66 135 108 137 131 131 178 230 174 156 157 307 291 25 238 412 377 489 957 1108 1226 1441 1403 1192 1209 1363 1516 1805 1854 1850 1939 1909 2079 2272 2095 2088 1516 1073 1022 2142 1979 2141 2200 2169 1373
348 229 0 10 2 15 41 90 243 226 168 188 221 225 194 369 255 331 413 509 521 618 1050 1122 1230 1449 1590 1636 1716 1696 1595 1693 1905 1902 2133 2248 2240 2222 1996 1480 1173 939 1223 1718 1888 2096 2164 2261 2013
71 94 8 2 14 0 11 168 249 327 338 307 332 221 251 291 414 366 613 672 735 771 1077 1182 1210 1429 1449 1553 1671 1735 1773 1995 2070 2017 1809 1721 1468 1298 1192 1045 1124 1079 1009 1400 2173 1604 1963 2324 2174
70 98 142 58 0 49 87 151 267 274 266 399 415 191 351 329 365 708 814 839 820 906 1110 1367 1340 1333 1362 1539 1790 1869 2140 2230 2317 2095 2202 2221 2176 2093 1971 1925 1905 1248 964 1255 1596 1813 2056 2150 1950
73 42 10 101 135 162 141 63 356 292 441 589 574 219 360 472 718 815 878 959 822 855 1118 1361 1449 1445 1434 1539 1862 1952 1975 2157 2277 2295 2261 2088 1992 1848 1963 1894 1834 1805 1922 2044 1932 1715 1576 1683 1604
57 31 0 0 77 251 206 221 347 436 521 453 326 365 458 804 702 857 985 961 898 806 1299 1273 1432 1601 1686 1684 1980 1976 1711 1885 2000 2014 1875 1825 1685 1532 1483 1456 1347 1321 1356 1388 1425 1349 1258 1219 1371
0 0 8 0 167 215 231 353 465 465 500 556 433 259 506 886 807 903 942 965 855 884 1032 1121 1407 1723 1794 1977 1964 1750 1601 1850 2042 2010 1493 1581 1490 1388 1361 1361 1367 1209 1387 1144 1228 1051 1008 1195 893
2 0 3 8 100 102 291 391 478 384 621 557 460 425 219 650 742 729 862 872 793 941 889 838 1263 1464 1697 1908 1894 1645 1663 1957 1857 1745 1495 837 1213 1054 1002 829 1039 828 1008 1163 1225 1159 1473 1142 1101
16 0 0 19 37 66 339 167 420 337 678 673 553 373 273 625 506 600 693 776 711 813 872 794 1104 1325 1444 1608 1733 1600 1659 1705 1768 1557 1537 1333 262 69 320 404 719 741 815 980 1319 1487 1487 1779 1794
0 0 4 0 41 33 136 175 335 602 602 539 460 373 387 436 396 350 357 380 463 328 700 940 1051 1122 1466 1436 1653 1551 1300 1151 1002 895 509 359 101 14 68 372 511 553 636 811 996 1131 1297 1527 1276
0 0 7 26 31 50 60 117 322 539 354 569 439 371 382 330 338 282 405 340 211 266 463 921 1012 1278 1291 1435 1327 1374 1346 982 503 430 230 129 68 73 11 36 78 75 356 495 628 595 460 265 292
0 0 16 67 87 42 44 102 443 558 460 565 418 425 420 420 389 386 492 588 639 788 348 552 949 1091 1222 1385 1257 1294 1301 756 369 288 230 131 56 32 1 0 0 7 27 98 113 25 12 34 32
0 0 0 100 86 40 108 133 221 520 631 543 526 545 501 527 520 489 483 520 560 545 628 622 690 943 1081 1067 1028 1088 949 636 396 331 290 201 112 95 36 0 0 0 0 1 0 0 0 1 1
0 0 0 47 109 92 103 92 199 484 694 605 537 544 667 683 682 602 551 579 595 411 376 679 563 702 794 831 889 797 820 546 437 348 210 67 119 166 98 30 2 0 0 0 0 0 0 0 0
0 0 0 10 54 93 85 66 171 611 729 632 619 569 646 748 787 764 761 708 669 646 404 271 538 599 685 659 518 611 614 415 326 303 188 116 35 83 114 79 82 38 23 0 0 0 0 0 61
0 0 0 0 14 87 91 0 71 615 711 573 686 693 717 721 711 686 774 865 831 821 782 708 717 723 703 690 628 575 531 431 378 277 70 56 67 64 129 141 154 86 50 46 43 23 12 13 92
0 0 0 0 0 4 64 12 0 628 708 570 660 717 735 791 813 820 810 886 896 869 896 898 958 923 718 685 682 669 573 460 229 161 45 49 84 91 118 160 151 152 126 157 170 108 51 20 67
0 0 0 0 0 3 12 10 28 484 689 580 522 574 705 709 778 845 867 853 820 823 843 790 920 950 857 720 693 620 542 420 315 202 141 172 165 135 155 203 169 198 210 228 221 177 84 56 82
0 0 0 0 0 0 0 0 0 206 682 707 592 577 552 532 553 578 782 877 858 750 801 725 740 799 810 805 744 637 636 528 386 263 192 88 104 108 195 161 113 180 188 115 245 224 172 213 211
0 0 0 0 0 0 0 0 0 248 582 707 724 636 659 608 570 501 355 541 688 688 670 687 693 717 745 765 761 701 581 526 508 416 333 241 108 130 137 177 98 129 157 64 260 270 215 278 232
0 0 0 0 0 0 0 0 0 1 519 674 753 677 655 707 693 525 339 418 462 519 534 611 689 700 694 717 654 620 552 537 507 564 577 513 404 268 189 158 100 92 133 42 177 293 256 118 145
0 0 0 0 0 0 0 0 0 0 13 254 339 833 797 796 676 576 123 394 422 390 425 517 600 689 691 638 694 682 615 663 638 661 610 615 484 397 269 188 133 84 121 113 85 125 206 149 65
0 0 0 0 0 0 0 0 0 0 6 159 283 260 707 721 721 688 636 598 398 369 379 408 525 739 860 954 974 861 911 786 672 739 764 690 501 407 357 283 249 258 205 160 163 131 181 146 112
0 0 0 0 0 0 0 0 0 0 0 70 465 567 689 637 451 492 458 356 339 537 623 558 598 663 776 782 561 617 704 744 848 852 800 833 711 538 481 473 420 365 262 155 119 165 130 96 114
0 0 0 0 0 0 0 0 0 2 0 55 90 315 659 631 626 508 480 298 169 171 1093 1016 884 744 515 471 561 217 118 114 326 510 720 798 846 760 762 696 563 443 411 195 124 210 190 116 65
0 0 0 0 0 0 0 0 4 21 41 52 240 633 622 760 692 821 1114 1265 992 225 189 1350 1057 841 428 81 3 0 0 9 51 58 466 712 688 617 829 804 712 604 513 442 207 207 261 224 121
0 0 0 0 0 0 0 0 0 57 97 183 623 710 747 831 902 1265 1575 1290 1059 587 822 1075 1059 675 460 394 28 0 0 0 71 177 478 799 788 836 856 853 783 696 663 531 409 316 67 53 89
0 0 0 0 0 0 0 0 0 64 121 168 699 718 821 410 268 953 1170 1006 1121 900 397 496 432 113 15 0 0 0 0 0 0 54 618 1201 1243 1203 1104 937 692 631 458 201 54 9 24 146 165
0 0 0 0 0 0 0 0 0 14 112 290 670 1013 842 345 93 968 1307 1191 1049 1268 1059 677 667 586 445 433 139 45 134 0 0 278 908 1317 1452 1210 1132 943 852 640 478 252 90 0 64 202 342
0 0 0 1 0 0 0 5 0 0 69 194 696 927 427 162 161 513 1265 1121 932 849 1093 1306 1142 1069 1042 902 666 563 519 684 829 1083 1239 1498 1472 1174 889 769 762 567 424 189 23 2 109 379 370
CIN
-224 -205 -270 -325 -91 -58 -65 -43 -69 -37 -43 -60 -60 -58 -66 -113 -80 -72 -132 -88 -86 -61 -1 -1 -1 -0 -2 -9 -13 -11 -4 -0 -0 -0 -0 -0 -0 -0 -0 -0 -10 -26 -21 -0 -0 -0 -0 -0 -12
-382 -394 -0 -66 -33 -44 -53 -98 -88 -63 -61 -75 -75 -95 -97 -84 -134 -124 -99 -63 -57 -46 -3 -2 -2 -0 -0 -0 -0 -0 -0 -0 -0 -1 -0 -0 -0 -0 -0 -9 -32 -34 -11 -0 -0 -0 -0 -0 -0
-516 -510 -234 -24 -70 -0 -19 -65 -89 -64 -64 -48 -70 -124 -123 -108 -92 -91 -64 -38 -16 -21 -4 -2 -1 -0 -0 -0 -0 -0 -0 -0 -0 -0 -5 -5 -8 -5 -0 -17 -39 -28 -27 -5 -0 -1 -0 -0 -0
-410 -305 -206 -100 -0 -64 -63 -75 -58 -41 -47 -59 -79 -99 -90 -112 -85 -55 -34 -15 -9 -4 -4 -0 -0 -0 -0 -0 -0 -0 -0 -0 -0 -1 -0 -0 -0 -0 -0 -0 -0 -23 -37 -5 -0 -0 -0 -0 -1
-345 -311 -159 -78 -45 -52 -65 -129 -50 -30 -48 -64 -64 -90 -79 -53 -47 -46 -27 -7 -31 -21 -4 -1 -0 -0 -0 -0 -0 -0 -0 -0 -0 -0 -0 -0 -0 -2 -0 -1 -1 -0 -0 -0 -0 -0 -9 -0 -0
-206 -249 -0 -0 -89 -61 -57 -67 -52 -40 -51 -73 -78 -85 -60 -10 -57 -32 -17 -13 -22 -47 -1 -1 -0 -0 -0 -0 -0 -0 -0 -0 -0 -1 -0 -0 -12 -10 -8 -4 -31 -20 -12 -5 -4 -10 -16 -17 -8
-0 -0 -71 -0 -77 -53 -63 -81 -57 -47 -45 -46 -78 -89 -69 -20 -22 -32 -25 -17 -31 -32 -19 -6 -1 -0 -0 -0 -0 -0 -0 -0 -0 -0 -8 -11 -2 -15 -12 -13 -18 -38 -25 -24 -18 -29 -24 -15 -19
-45 -0 -21 -43 -95 -88 -78 -76 -90 -68 -48 -84 -97 -54 -132 -82 -47 -45 -27 -27 -41 -27 -37 -46 -4 -2 -3 -2 -0 -0 -0 -0 -0 -0 -1 -16 -10 -6 -10 -20 -17 -31 -33 -28 -23 -26 -9 -16 -13
-286 -0 -0 -27 -167 -101 -86 -95 -133 -148 -88 -75 -81 -99 -164 -122 -114 -80 -65 -46 -63 -44 -41 -53 -24 -7 -7 -6 -1 -0 -0 -0 -0 -0 -0 -0 -20 -36 -17 -22 -18 -20 -23 -23 -21 -15 -13 -3 -0
-0 -0 -28 -0 -49 -45 -105 -93 -117 -111 -121 -136 -138 -165 -184 -173 -156 -167 -169 -158 -128 -168 -99 -53 -32 -23 -9 -8 -5 -2 -7 -7 -3 -6 -5 -14 -28 -31 -37 -12 -6 -11 -17 -18 -17 -16 -10 -8 -12
-0 -0 -66 -53 -67 -80 -73 -112 -151 -94 -102 -126 -131 -176 -192 -208 -182 -187 -158 -174 -207 -207 -156 -77 -53 -20 -23 -15 -14 -10 -5 -17 -17 -20 -22 -22 -30 -35 -63 -36 -23 -18 -9 -18 -18 -34 -46 -85 -78
-0 -0 -67 -60 -122 -92 -62 -128 -86 -95 -84 -154 -192 -180 -201 -192 -181 -175 -156 -152 -154 -132 -205 -154 -84 -60 -46 -28 -33 -24 -8 -23 -38 -39 -41 -39 -55 -61 -83 -0 -0 -34 -47 -40 -60 -104 -134 -135 -132
-0 -0 -0 -79 -84 -88 -107 -105 -98 -93 -157 -229 -257 -222 -201 -186 -188 -190 -161 -164 -176 -178 -170 -162 -143 -104 -81 -63 -69 -50 -48 -50 -54 -50 -56 -61 -62 -49 -66 -0 -0 -0 -0 -28 -0 -0 -0 -38 -33
-0 -0 -0 -71 -92 -96 -84 -112 -118 -150 -219 -235 -254 -246 -215 -190 -179 -199 -176 -170 -192 -196 -204 -169 -180 -165 -138 -115 -101 -100 -68 -73 -68 -66 -74 -104 -77 -40 -60 -76 -32 -0 -0 -0 -0 -0 -0 -0 -0
-0 -0 -0 -47 -74 -74 -113 -82 -86 -169 -223 -208 -242 -239 -230 -196 -195 -174 -162 -159 -165 -181 -205 -245 -208 -198 -172 -156 -161 -130 -101 -95 -84 -78 -82 -91 -124 -82 -61 -48 -52 -54 -88 -0 -0 -0 -0 -0 -88
-0 -0 -0 -0 -70 -93 -77 -0 -113 -218 -200 -184 -225 -244 -250 -241 -246 -230 -210 -168 -176 -175 -195 -212 -205 -199 -191 -172 -153 -132 -111 -99 -83 -91 -150 -147 -109 -74 -65 -55 -59 -57 -46 -51 -78 -108 -99 -88 -71
-0 -0 -0 -0 -0 -45 -84 -34 -0 -216 -218 -179 -210 -228 -229 -248 -260 -248 -242 -219 -197 -181 -176 -183 -195 -189 -186 -169 -119 -106 -113 -104 -112 -135 -189 -167 -117 -83 -70 -58 -53 -40 -33 -21 -11 -53 -123 -92 -75
-0 -0 -0 -0 -0 -70 -48 -68 -162 -216 -193 -172 -199 -222 -228 -225 -227 -259 -255 -254 -217 -202 -193 -200 -193 -197 -207 -182 -171 -154 -132 -134 -145 -164 -167 -124 -110 -106 -84 -58 -50 -43 -24 -33 -11 -23 -68 -91 -79
-0 -0 -0 -0 -0 -0 -0 -0 -0 -199 -257 -227 -209 -200 -205 -187 -237 -292 -248 -236 -242 -254 -241 -218 -202 -215 -234 -203 -147 -185 -153 -163 -176 -196 -188 -173 -144 -117 -90 -68 -69 -44 -32 -50 -37 -28 -36 -37 -59
-0 -0 -0 -0 -0 -0 -0 -0 -0 -239 -234 -243 -214 -197 -171 -172 -219 -256 -233 -264 -240 -242 -263 -265 -253 -246 -240 -223 -194 -187 -182 -173 -157 -160 -198 -186 -168 -125 -111 -88 -84 -57 -28 -76 -29 -35 -30 -26 -47
-0 -0 -0 -0 -0 -0 -0 -0 -0 -39 -297 -272 -262 -236 -234 -164 -159 -201 -186 -234 -265 -252 -270 -254 -258 -275 -283 -263 -250 -244 -231 -211 -187 -152 -160 -163 -144 -125 -114 -110 -128 -108 -73 -101 -37 -13 -31 -39 -59
-0 -0 -0 -0 -0 -0 -0 -0 -0 -0 -236 -259 -268 -227 -218 -196 -185 -179 -293 -235 -253 -275 -311 -301 -294 -304 -289 -252 -223 -172 -149 -125 -162 -134 -147 -132 -149 -144 -133 -130 -121 -106 -89 -79 -76 -58 -35 -51 -62
-0 -0 -0 -0 -0 -0 -0 -0 -0 -0 -148 -192 -239 -272 -269 -276 -247 -251 -221 -245 -289 -312 -295 -337 -347 -364 -341 -323 -284 -235 -235 -202 -158 -108 -121 -129 -148 -163 -171 -142 -113 -86 -78 -77 -85 -77 -49 -40 -48
-0 -0 -0 -0 -0 -0 -0 -0 -0 -0 -0 -232 -257 -324 -326 -347 -353 -315 -306 -358 -359 -301 -264 -312 -330 -344 -373 -346 -377 -290 -306 -275 -201 -148 -91 -130 -114 -149 -156 -149 -124 -99 -94 -121 -138 -114 -107 -88 -62
-0 -0 -0 -0 -0 -0 -0 -0 -20 -101 -0 -244 -256 -334 -344 -372 -320 -326 -285 -311 -378 -339 -224 -280 -317 -351 -403 -374 -311 -351 -295 -400 -315 -253 -164 -105 -99 -106 -103 -114 -117 -134 -117 -172 -203 -143 -128 -136 -123
-0 -0 -0 -0 -0 -0 -0 -0 -98 -303 -378 -433 -289 -305 -306 -274 -274 -277 -251 -253 -318 -379 -369 -269 -295 -312 -393 -419 -34 -0 -0 -533 -361 -361 -216 -170 -158 -128 -89 -104 -123 -132 -116 -121 -154 -147 -130 -96 -97
-0 -0 -0 -0 -0 -0 -0 -0 -0 -320 -307 -356 -231 -235 -152 -156 -175 -166 -183 -253 -297 -348 -343 -316 -284 -347 -319 -246 -195 -0 -0 -0 -294 -282 -242 -175 -161 -129 -106 -139 -128 -131 -133 -100 -102 -92 -173 -189 -186
-0 -0 -0 -0 -0 -0 -0 -0 -0 -184 -193 -286 -203 -152 -157 -245 -282 -173 -141 -164 -253 -311 -412 -352 -339 -198 -201 -11 -0 -0 -0 -0 -0 -429 -179 -64 -74 -77 -69 -87 -136 -136 -163 -193 -239 -218 -224 -174 -189
-0 -0 -0 -0 -0 -0 -0 -0 -0 -105 -234 -202 -173 -146 -154 -258 -324 -213 -215 -198 -245 -239 -250 -266 -242 -228 -209 -242 -386 -375 -271 -0 -0 -279 -117 -48 -43 -63 -74 -94 -105 -119 -131 -194 -236 -0 -200 -124 -119
-0 -0 -0 -61 -0 -0 -0 -44 -0 -89 -306 -285 -221 -234 -344 -439 -399 -282 -222 -213 -211 -194 -183 -164 -184 -122 -111 -119 -129 -160 -192 -162 -126 -91 -57 -57 -36 -56 -81 -123 -130 -145 -170 -235 -291 -250 -175 -93 -94
Wind_Speed
23 20 16 13 5 5 8 8 13 19 22 21 19 16 16 16 16 16 24 23 23 23 20 20 22 21 20 19 20 20 20 22 21 21 20 20 20 19 19 17 17 18 19 19 20 19 18 18 19
22 18 17 10 24 25 20 13 17 24 23 23 23 19 18 16 16 19 21 24 23 22 20 20 21 20 20 19 20 21 21 22 21 23 21 19 19 18 18 17 17 18 19 18 18 17 17 19 18
21 20 16 10 24 25 23 19 19 21 21 21 21 22 19 17 18 22 20 24 22 23 20 20 21 21 20 21 20 21 22 21 21 22 22 20 19 17 17 16 17 19 19 18 16 16 16 16 17
19 24 25 27 25 20 20 21 20 20 20 22 21 22 22 20 23 20 22 22 22 22 20 22 22 22 22 24 23 22 21 21 21 21 21 19 19 18 16 15 16 18 18 17 16 15 16 17 18
10 24 26 24 19 15 19 19 20 21 20 22 20 21 22 21 20 23 24 24 24 24 22 22 23 22 22 22 21 21 21 21 21 21 20 19 19 17 15 13 13 15 16 16 16 16 15 16 16
23 22 25 21 22 20 18 16 18 22 21 23 24 23 20 22 25 24 23 22 23 24 22 23 23 23 21 21 20 19 18 18 18 19 19 17 17 18 14 13 13 13 13 14 16 16 16 16 16
18 21 21 21 22 23 22 22 22 21 22 21 22 22 21 23 25 24 24 24 24 23 22 22 22 21 20 20 19 18 17 17 16 15 17 16 16 17 13 13 13 13 13 15 15 15 17 17 17
18 20 19 21 22 24 21 22 21 21 21 22 20 18 20 23 24 22 22 21 22 23 22 23 22 22 20 18 19 18 17 16 14 14 13 15 15 16 12 10 10 11 13 14 16 15 17 18 17
19 21 20 20 21 23 21 22 21 21 22 20 19 20 23 25 24 23 22 20 20 21 23 24 23 22 21 19 18 17 16 16 14 13 12 12 12 10 9 8 10 10 12 13 16 18 19 18 17
18 20 20 19 19 21 21 20 22 23 23 23 23 23 27 27 27 26 24 23 22 22 24 24 23 22 21 20 19 16 16 16 16 10 15 12 10 9 9 11 11 10 13 14 18 21 20 18 17
18 19 20 19 18 20 22 22 21 25 22 19 23 27 28 28 27 25 24 23 23 23 23 23 22 21 21 18 18 17 16 15 14 17 16 13 8 6 15 8 12 14 16 15 19 23 21 20 18
15 14 17 16 21 21 22 23 22 22 23 25 28 30 30 28 27 25 24 23 23 22 22 21 21 21 20 18 18 18 17 14 17 17 14 12 11 9 10 16 16 18 22 21 22 24 23 22 19
13 13 16 18 21 20 20 20 19 20 26 29 28 28 27 26 24 23 22 21 21 21 21 22 21 21 20 19 17 17 17 20 15 13 13 13 10 9 8 7 11 17 25 24 25 25 24 23 21
16 16 17 19 20 20 19 16 16 19 24 26 27 25 25 25 24 23 21 20 20 20 20 20 20 19 19 19 17 16 17 17 14 14 13 10 8 8 14 17 17 19 24 27 26 26 24 24 23
15 15 15 17 18 17 18 15 16 18 21 22 23 23 23 22 22 22 20 19 19 20 19 18 19 18 18 18 18 17 15 13 16 14 11 11 9 14 18 18 20 19 25 28 29 28 27 26 24
15 14 14 17 14 15 17 14 16 18 19 19 20 21 21 21 21 19 18 18 19 19 19 17 17 17 18 17 16 16 15 16 17 13 11 8 8 13 15 13 25 23 18 26 29 29 28 27 25
16 15 11 11 17 14 16 15 14 17 17 17 18 19 20 19 18 18 18 18 18 18 17 16 17 16 16 13 15 14 15 16 13 11 9 13 10 8 5 3 26 24 26 25 27 30 29 28 27
18 18 11 10 14 18 13 15 14 15 15 15 17 18 19 18 18 18 17 16 15 16 16 16 16 14 13 10 14 13 12 16 11 11 12 8 7 9 4 6 26 25 26 26 24 26 29 30 29
7 11 10 10 12 10 12 13 17 13 14 14 16 18 19 19 16 15 16 14 13 13 15 16 14 13 12 11 10 12 12 11 11 9 11 9 10 9 12 21 28 25 27 27 23 26 20 26 25
6 14 15 14 13 9 9 9 20 16 15 15 17 19 19 17 14 15 12 13 14 13 13 14 15 13 11 11 10 9 8 9 10 9 8 8 11 12 14 17 9 7 22 25 26 26 20 17 13
16 12 14 14 14 14 11 20 21 21 14 14 16 19 18 20 20 18 12 13 14 14 13 12 12 11 10 9 8 7 8 9 12 13 11 8 8 11 14 15 13 7 3 12 25 25 20 15 19
13 10 12 15 16 14 17 10 21 21 18 14 17 16 16 17 19 19 7 10 11 12 9 8 7 6 7 6 5 4 4 7 6 8 11 11 7 8 9 11 13 14 6 17 20 18 22 16 22
14 11 14 18 18 16 18 13 14 20 19 19 21 10 7 5 8 17 6 8 8 7 7 5 5 6 5 5 6 7 1 4 9 8 10 10 9 7 7 8 7 8 10 10 2 7 10 11 24
10 12 16 16 17 16 17 13 16 15 20 19 19 17 14 12 12 12 13 15 16 12 8 6 5 5 3 7 5 6 16 11 15 15 14 9 6 6 5 6 5 7 8 11 8 3 6 8 13
12 17 20 16 15 16 18 14 15 17 17 10 20 18 13 11 11 13 15 17 16 14 13 10 5 2 2 3 3 8 6 4 2 12 14 10 7 7 3 4 3 7 8 8 5 2 13 13 10
15 13 13 13 15 19 16 16 18 14 19 15 15 13 10 9 11 14 17 20 21 9 11 10 9 4 2 3 1 4 4 3 6 9 7 19 12 8 3 2 1 4 4 4 2 5 10 12 11
14 15 10 11 15 17 17 17 19 14 13 15 13 16 16 11 12 13 16 19 24 21 15 12 11 11 5 0 2 11 7 10 6 7 4 5 10 7 3 5 2 1 2 2 6 6 8 14 12
11 8 14 16 16 18 20 19 17 8 8 10 9 11 17 17 18 12 15 19 23 23 18 16 13 9 5 6 15 18 23 12 11 19 14 6 6 6 6 4 5 6 6 4 4 8 4 16 16
12 14 15 13 15 17 19 19 13 5 6 7 6 11 8 15 18 15 14 16 22 25 21 17 15 14 13 16 16 17 19 17 12 13 8 8 15 13 11 8 7 8 8 7 4 4 2 15 13
13 13 13 14 16 16 17 20 18 8 6 7 6 8 15 16 16 16 14 17 21 25 24 19 17 23 20 20 21 22 22 21 20 20 19 19 16 17 17 14 12 10 10 12 8 8 8 5 8
Wind_Direction
71 111 125 138 201 264 318 280 135 80 58 40 60 74 61 25 59 68 111 109 104 102 96 97 100 95 91 89 88 88 90 91 89 87 86 86 84 79 74 69 64 66 69 70 70 66 62 58 60
91 92 105 183 78 39 86 113 16 54 58 55 45 51 28 37 49 84 93 109 104 102 96 97 99 96 94 92 93 94 94 94 91 94 89 81 80 74 70 68 68 71 72 67 64 55 56 63 60
80 83 116 292 71 57 72 84 4 58 52 34 44 34 52 53 68 98 95 108 103 104 97 99 100 100 98 98 95 96 97 97 96 95 95 90 83 72 62 66 73 77 76 71 58 58 55 49 56
88 49 62 47 79 89 67 53 52 48 34 28 45 34 55 69 90 93 102 103 103 105 100 103 105 103 103 105 103 101 98 96 99 97 95 90 87 80 66 67 70 77 76 70 59 51 56 63 73
135 58 38 71 94 109 83 75 61 42 32 39 60 54 69 101 83 99 105 107 111 112 107 108 111 109 108 109 106 104 103 101 100 100 97 92 90 79 68 64 60 65 67 65 67 67 58 67 69
25 59 60 87 70 80 89 104 89 50 63 61 54 72 107 113 107 108 107 107 113 115 111 114 115 114 112 112 109 104 103 102 102 103 102 97 92 91 76 69 69 63 61 67 74 73 74 83 97
67 56 71 71 58 62 72 73 69 65 66 72 92 73 105 109 116 112 112 114 118 119 116 119 120 119 117 116 114 112 108 107 104 101 105 91 96 94 82 78 79 79 75 89 91 86 103 154 185
74 67 75 66 63 59 85 82 85 85 80 90 88 86 109 120 116 107 109 111 119 124 126 130 129 130 125 120 122 118 117 116 109 104 102 105 105 103 85 74 82 90 95 105 126 116 141 194 208
86 67 71 68 71 71 102 86 100 89 78 78 77 89 109 114 113 113 115 116 121 130 137 140 138 138 136 132 131 129 128 131 122 111 116 107 82 46 300 96 111 108 122 121 143 167 184 202 213
81 69 69 92 100 90 103 104 97 79 75 64 57 76 105 116 123 128 129 133 134 139 149 148 148 145 143 144 142 135 139 143 142 113 153 137 114 15 349 129 133 135 144 143 161 191 199 210 206
85 73 77 105 120 117 105 110 99 77 85 97 89 104 117 123 132 132 133 136 141 147 151 153 152 150 151 147 152 152 151 146 147 154 150 144 108 80 314 116 154 156 162 153 171 215 218 216 227
72 122 101 119 103 117 106 101 99 97 86 98 103 112 119 126 133 134 137 136 140 145 154 154 157 158 160 157 159 165 166 148 164 161 148 135 143 127 143 178 179 182 182 176 182 208 228 232 233
97 128 138 121 92 128 113 108 112 103 85 93 102 112 124 132 134 138 140 139 142 146 152 154 155 161 164 165 166 170 173 178 158 146 151 146 135 138 120 89 148 179 189 179 191 210 218 231 231
66 112 123 130 110 120 115 138 128 118 92 98 106 118 128 132 135 134 138 141 145 149 153 155 159 161 163 168 170 171 176 179 160 159 161 149 139 136 169 186 182 182 188 193 199 211 215 226 235
55 83 92 122 137 107 109 156 142 121 106 107 117 119 130 139 138 139 138 139 141 147 146 149 157 156 161 171 178 180 178 164 178 173 160 165 154 176 194 189 195 185 208 219 217 216 223 227 236
58 56 100 158 109 143 126 177 143 117 118 118 121 127 132 141 149 149 142 139 144 150 149 142 148 157 167 167 173 181 185 191 189 172 171 157 158 172 180 174 222 210 177 215 225 221 221 223 228
11 44 87 139 147 94 128 190 160 126 125 135 139 139 141 146 151 154 156 150 148 149 151 148 148 154 160 154 187 184 191 201 186 170 165 180 169 165 145 27 249 261 239 219 223 231 224 223 235
260 356 43 110 129 157 125 172 150 130 134 144 148 153 153 153 158 157 159 150 142 150 153 154 155 150 136 114 172 180 185 203 189 183 185 165 152 163 145 329 253 256 250 229 209 214 243 236 249
130 62 55 140 125 107 137 163 210 144 146 154 161 164 166 164 160 156 164 152 143 142 155 163 155 148 127 134 146 174 184 182 186 184 199 182 172 162 173 203 235 263 244 228 258 232 186 267 268
67 28 8 20 29 34 9 48 284 174 175 176 175 177 175 176 156 161 127 145 156 157 154 155 163 151 139 137 150 154 145 178 190 185 170 165 182 170 165 176 152 145 283 266 263 250 281 292 304
331 21 9 23 15 7 22 310 292 280 176 171 183 188 182 191 192 188 143 137 158 166 158 155 153 151 137 124 119 123 159 195 212 218 200 171 146 165 176 174 167 140 105 310 265 263 287 305 286
331 40 9 12 0 7 332 24 289 285 221 176 194 183 181 186 191 203 85 127 157 165 139 139 120 81 74 95 112 136 156 197 175 193 212 203 146 143 159 173 181 183 155 195 196 292 282 300 281
330 349 342 343 347 351 337 11 0 295 250 251 277 169 129 107 358 305 94 145 137 82 126 94 67 55 69 53 68 18 82 198 214 205 206 197 180 145 146 160 161 165 172 179 275 312 310 308 281
348 340 340 345 348 354 349 359 346 343 295 251 321 342 359 358 347 347 12 347 351 31 70 62 88 127 131 156 16 359 327 333 226 228 222 192 171 158 133 144 151 172 181 185 175 190 302 309 305
322 319 316 323 337 348 346 352 346 347 355 26 312 339 1 7 10 352 347 344 16 41 42 61 66 111 168 167 224 229 229 314 320 219 225 215 200 197 166 131 145 170 179 182 187 264 301 300 299
318 326 316 322 330 337 349 345 341 10 343 16 0 4 16 17 18 357 341 335 352 59 38 42 40 37 159 154 197 3 321 306 341 214 230 232 221 223 341 11 60 170 181 187 203 285 299 296 297
323 328 341 338 334 332 339 346 339 7 31 27 91 114 94 69 45 12 3 2 10 23 37 40 41 41 77 170 328 6 26 5 355 223 277 267 229 236 293 325 313 282 291 281 309 322 298 295 293
332 16 330 326 324 323 328 332 345 50 59 31 69 107 126 41 23 353 353 335 356 11 28 28 32 27 23 8 357 348 344 347 339 325 237 288 304 320 320 299 297 297 302 302 296 325 234 293 292
340 332 336 344 333 325 324 329 5 85 70 62 82 119 64 10 7 19 17 359 355 358 11 17 16 17 11 357 354 349 346 343 331 322 290 306 321 325 325 318 304 298 298 294 302 8 96 302 300
1 358 355 337 332 338 335 331 357 40 113 54 69 33 341 353 6 18 9 354 350 351 356 8 14 360 356 350 346 340 337 335 332 328 323 321 318 316 316 317 312 305 298 301 279 305 319 306 299